Theta_e
304 303 303 303 304 305 305 305 304 304 304 304 305 306 307 307 308 308 308 309 307 307 307 307 308 308 309 309 310 310 306 307 308 308 308 308 310 309 309 309 309 309 309 309 309
304 305 304 305 305 306 306 306 305 303 304 304 305 306 306 307 310 308 308 308 307 307 307 308 309 309 309 309 308 304 305 307 307 308 309 309 309 309 309 308 309 309 310 310 310
302 304 305 306 306 306 306 306 306 305 303 304 304 305 306 307 312 308 308 308 307 308 308 308 309 309 308 309 309 307 306 308 308 310 311 310 309 309 308 310 309 309 310 310 309
305 303 304 304 304 305 306 306 306 306 305 304 304 305 306 307 309 308 307 308 307 308 308 308 309 308 307 308 309 307 309 309 309 310 310 309 310 309 309 310 309 310 310 309 308
311 308 305 305 304 302 304 305 306 306 306 306 305 305 306 307 310 308 307 308 307 308 309 309 309 308 307 309 309 309 309 310 310 310 310 310 309 309 310 309 309 309 308 308 308
312 312 310 308 307 307 304 302 304 305 306 305 306 305 306 306 311 308 307 307 307 309 309 309 309 309 309 309 309 310 310 310 310 310 309 308 308 308 309 309 308 308 308 309 309
312 312 312 312 311 309 309 302 302 303 305 305 306 306 306 308 309 307 307 307 307 309 309 310 311 310 309 309 311 310 309 304 309 308 307 308 306 308 309 308 308 308 309 310 310
309 313 312 310 312 312 311 308 303 304 305 306 306 306 307 310 310 307 307 306 307 309 310 310 311 311 311 310 305 304 303 306 305 306 307 308 309 305 307 307 308 308 309 310 310
306 309 311 311 311 312 312 312 308 304 306 306 306 307 308 310 310 307 307 306 307 309 311 310 311 310 308 303 303 303 306 307 306 306 307 307 308 307 307 307 307 308 309 309 309
302 305 307 310 311 311 310 311 309 304 308 308 307 307 307 308 308 308 307 306 307 310 311 310 309 305 303 304 306 306 307 307 307 306 306 307 307 307 307 307 307 308 309 309 310
304 304 305 308 311 311 310 310 306 305 305 303 306 308 308 309 308 308 307 307 308 309 306 308 304 304 307 306 304 306 307 308 305 305 307 306 307 308 307 306 306 308 308 309 309
302 300 307 310 312 310 310 307 304 305 305 304 305 305 305 308 307 307 306 308 307 305 307 303 304 305 306 307 308 308 308 307 305 305 307 307 307 306 304 305 306 308 307 309 310
300 299 306 310 311 309 310 309 305 305 305 304 306 307 308 307 307 307 308 308 307 307 307 303 305 308 309 308 308 307 307 306 308 306 304 305 305 303 304 305 307 308 307 309 310
300 298 305 308 309 311 310 310 306 306 299 300 305 308 308 307 307 310 309 308 307 305 306 307 306 308 308 309 305 307 305 307 309 306 307 304 307 305 304 304 303 305 307 309 310
300 298 305 308 309 311 310 310 307 304 294 300 306 308 308 307 308 309 309 308 305 308 303 302 307 309 309 308 306 306 307 307 306 302 302 304 306 305 302 306 305 305 306 307 308
302 302 304 307 308 310 310 310 306 302 299 301 308 308 308 308 309 309 309 308 308 307 307 305 307 307 307 307 307 307 304 301 298 301 303 302 304 305 305 305 305 304 306 307 307
302 304 303 306 307 309 310 309 301 300 301 305 308 309 308 308 308 309 309 308 306 301 303 304 306 308 308 308 307 306 302 301 302 302 306 303 304 306 303 303 302 303 306 307 307
302 305 305 304 305 308 310 303 303 302 300 304 309 310 310 309 309 310 309 308 306 303 303 303 301 308 308 308 306 307 304 302 300 304 305 302 307 306 303 304 304 304 305 306 306
304 304 305 305 305 307 308 300 302 304 303 307 307 309 306 308 308 309 308 306 304 305 303 306 305 305 308 308 307 307 307 303 303 301 306 305 302 302 302 303 304 304 304 305 304
304 304 304 305 305 306 307 305 305 303 307 308 308 306 305 306 307 308 306 305 308 306 305 304 305 305 306 307 305 307 303 306 306 304 306 304 302 307 304 303 302 302 303 303 304
304 304 303 305 305 306 307 306 307 307 307 308 306 306 305 305 305 306 305 304 305 307 307 304 304 305 305 307 307 307 307 305 303 302 307 306 305 301 302 303 302 304 305 304 304
303 300 304 305 304 306 307 305 307 307 307 307 306 305 306 305 306 306 305 303 305 307 308 306 304 306 306 303 303 305 307 306 306 305 306 304 306 303 303 302 305 305 304 304 302
303 303 303 304 306 306 305 306 306 307 307 306 307 306 306 306 307 304 303 304 306 306 306 306 305 303 304 304 303 305 305 304 302 302 306 306 307 303 305 306 305 305 304 303 301
302 302 302 304 303 303 305 306 306 305 306 306 307 307 307 307 306 306 306 306 306 306 307 306 303 304 303 305 303 305 304 304 305 304 306 306 306 305 305 305 304 304 303 301 306
301 300 300 301 303 302 302 304 304 306 305 305 306 306 306 307 306 307 305 305 305 305 305 304 306 303 304 304 305 305 306 305 305 305 306 306 306 306 305 304 304 301 300 303 305
299 299 300 299 299 301 301 302 304 304 303 303 304 304 304 305 306 306 305 305 305 304 304 304 306 305 306 304 305 306 305 306 306 306 306 305 305 304 303 302 301 300 300 302 306
298 298 298 298 298 297 298 302 303 301 302 302 302 303 303 303 303 303 302 301 301 303 303 303 303 304 305 303 302 303 303 304 305 303 303 304 304 300 301 301 301 300 301 304 306
Wind_Speed
13 13 14 14 14 14 14 14 14 14 12 11 10 10 9 7 4 9 8 12 13 12 10 8 6 2 6 7 8 3 4 2 4 4 1 2 4 2 4 8 8 6 9 9 14
16 15 15 14 14 15 14 13 13 12 12 12 11 9 8 7 3 5 9 12 10 11 8 8 4 5 5 5 5 6 4 4 2 1 2 4 2 5 3 5 6 8 6 8 13
16 16 16 16 16 17 18 17 16 14 11 11 12 9 7 6 2 2 7 10 8 9 8 9 4 5 6 6 8 3 3 2 1 1 4 4 6 2 2 4 7 6 14 15 18
17 17 17 18 18 19 19 19 18 17 16 11 10 11 7 4 3 1 5 8 8 9 9 7 2 4 5 4 4 5 2 1 1 1 3 3 7 6 8 8 15 16 15 19 23
17 17 17 17 16 17 16 16 19 18 17 17 11 9 8 3 2 2 3 6 7 7 6 3 6 5 5 4 3 4 2 3 4 9 7 7 9 7 19 12 6 14 18 23 23
15 15 16 19 19 18 19 17 15 16 18 16 14 8 5 3 3 3 2 5 6 7 9 8 7 10 9 3 3 1 4 7 1 5 3 3 5 5 2 1 15 21 19 15 13
14 15 16 17 18 21 22 20 18 15 15 13 12 7 7 4 4 3 2 4 6 6 7 9 8 3 6 3 3 1 2 2 2 5 4 13 1 7 3 9 24 21 13 10 10
16 16 16 17 17 18 20 23 23 16 13 9 7 4 2 4 4 3 2 3 4 4 4 6 6 7 4 5 4 4 4 4 2 6 3 5 9 6 5 20 24 18 11 9 10
20 18 18 17 17 19 19 21 23 16 9 5 3 2 2 3 3 2 2 3 1 2 3 4 3 4 3 4 4 6 1 2 8 3 1 3 10 7 15 19 21 16 8 11 10
20 18 18 17 18 20 20 21 18 12 8 7 4 2 3 3 2 3 4 3 0 1 1 1 3 3 3 4 3 1 1 2 4 3 1 4 19 20 19 14 16 12 7 8 7
16 15 15 14 13 17 21 17 6 3 8 8 6 3 4 5 4 4 4 1 1 2 2 3 4 2 4 2 4 5 3 3 4 3 5 4 14 23 23 12 7 7 8 6 4
17 15 11 12 10 13 15 9 8 7 10 11 9 10 7 5 1 2 3 2 2 2 2 5 2 3 6 5 4 2 2 4 5 3 3 4 18 13 5 4 5 6 7 5 2
16 13 10 9 9 10 10 11 10 11 4 5 2 2 1 5 3 2 3 3 2 4 2 4 2 6 3 3 3 2 3 2 4 6 0 7 7 5 4 4 5 10 12 7 6
16 14 9 7 7 5 5 9 11 11 4 6 1 1 1 3 2 3 4 2 1 5 5 2 2 4 2 2 5 1 4 1 3 4 3 5 5 7 4 8 4 5 3 7 10
14 10 10 8 5 4 5 9 9 4 4 5 1 1 3 2 4 1 3 2 3 4 4 3 6 4 3 3 4 2 2 1 2 3 3 2 2 7 3 3 3 5 6 10 12
10 8 6 8 8 8 4 10 4 5 6 3 1 2 2 1 2 2 2 2 3 3 2 2 0 2 3 3 3 3 3 4 3 2 2 1 1 5 3 4 2 6 19 17 14
9 5 5 7 4 5 4 6 4 4 2 3 2 3 1 2 2 2 2 1 4 4 1 1 1 1 2 3 1 2 4 3 5 4 4 3 1 11 5 4 4 10 21 20 20
7 6 5 6 7 8 5 3 1 4 3 3 1 2 1 5 1 3 2 2 3 3 3 4 4 5 3 2 5 2 2 4 5 2 4 0 6 5 5 8 17 17 16 21 31
5 6 5 5 6 6 5 2 6 4 3 3 1 3 2 1 0 2 4 3 5 7 5 4 0 1 1 2 2 3 2 0 4 1 2 3 6 9 4 3 4 18 26 33 37
4 4 6 4 8 10 1 4 4 3 4 3 2 2 2 3 1 0 2 0 0 5 1 5 4 1 1 4 5 2 6 3 2 1 5 5 5 7 7 9 9 11 23 31 36
3 3 2 3 8 5 2 5 4 4 3 3 0 1 2 2 1 1 1 2 4 1 2 4 3 2 3 5 6 2 1 4 3 3 4 5 5 5 7 7 7 20 31 30 35
1 2 4 8 2 2 2 3 7 2 3 2 1 2 2 2 2 2 2 1 8 4 4 0 4 3 5 1 1 2 5 6 4 4 4 2 7 6 5 8 29 33 31 31 36
2 4 3 7 2 1 2 3 2 3 3 4 2 2 2 2 2 2 2 1 10 3 3 3 0 2 5 3 1 3 3 4 4 2 7 4 8 3 23 28 34 35 32 35 35
1 2 2 2 3 1 2 3 3 2 1 1 3 4 3 2 2 2 3 2 4 5 5 1 2 4 5 3 3 2 4 5 5 4 10 14 30 21 22 22 30 36 32 35 30
3 1 1 1 2 3 2 3 2 2 0 0 2 2 2 3 2 3 3 4 4 7 3 2 5 3 3 5 3 6 10 10 16 18 12 11 16 23 23 20 29 30 28 28 26
2 1 1 1 1 1 3 1 2 2 1 2 1 3 3 2 0 1 1 1 2 4 3 4 2 2 5 9 12 13 10 16 20 16 14 14 19 22 25 25 26 24 23 26 25
4 2 1 3 1 2 2 1 3 6 3 5 3 1 2 4 4 3 2 9 8 2 1 1 2 2 3 4 5 7 19 20 12 5 6 7 9 5 15 17 25 26 20 26 24
Wind_Direction
3 2 359 355 357 354 352 353 353 345 339 341 346 350 352 347 326 6 15 14 9 12 14 14 31 87 60 56 52 67 65 103 177 172 291 357 3 356 279 282 289 240 250 274 286
3 358 357 359 354 348 348 346 343 348 340 335 337 343 345 345 300 358 12 11 7 8 14 28 62 75 68 42 29 61 82 183 173 211 257 301 268 310 303 292 280 280 277 293 299
8 5 1 355 352 350 346 343 342 333 339 334 329 332 338 341 287 342 5 6 3 5 11 23 57 72 68 39 18 39 106 158 259 232 300 311 310 282 270 289 243 295 314 315 311
11 9 3 358 355 352 346 340 338 337 325 329 326 320 325 323 249 316 356 360 2 5 7 27 73 65 65 56 24 92 85 160 252 279 316 290 296 280 233 254 309 303 304 308 309
357 358 358 359 357 349 341 340 333 330 326 320 323 318 314 293 243 270 339 354 7 15 30 69 83 97 105 104 84 61 335 284 277 290 288 280 264 265 274 301 338 321 307 304 306
337 340 341 342 344 347 344 332 330 324 320 320 311 314 290 263 229 248 309 353 7 32 43 66 90 100 107 86 88 281 280 295 300 333 322 293 285 337 260 226 322 321 318 320 321
316 322 325 333 335 336 340 338 327 323 315 314 308 304 281 234 234 249 299 348 14 39 57 73 85 104 118 112 87 349 47 358 48 10 349 329 271 216 211 314 321 322 329 336 349
302 308 313 323 327 331 331 333 332 321 317 306 305 300 274 259 230 259 304 350 11 31 52 73 94 82 68 113 40 46 54 18 337 353 31 19 281 183 270 332 324 326 329 341 346
295 294 303 314 322 326 332 327 328 319 312 305 280 253 187 277 248 233 307 331 359 45 64 66 94 84 90 82 27 9 135 2 320 31 353 56 280 245 303 320 312 316 317 329 326
287 293 293 302 321 329 333 332 324 313 305 292 246 204 170 185 220 257 310 318 89 123 118 86 68 79 40 74 216 241 23 262 246 308 358 255 269 285 305 304 299 296 303 329 340
297 285 291 289 311 327 336 346 360 312 321 280 284 260 165 170 246 268 291 310 171 137 106 26 78 173 162 126 117 116 137 259 255 273 306 220 281 289 308 305 287 263 301 328 13
293 290 286 318 315 333 344 27 11 329 307 288 269 257 236 207 212 255 226 215 148 164 109 31 144 164 120 103 100 117 153 262 281 256 302 353 299 305 287 271 265 272 309 304 357
317 286 257 282 330 330 354 14 1 347 283 299 261 266 230 218 178 186 192 154 120 133 149 147 148 140 116 131 119 210 191 224 251 324 128 303 291 336 320 317 291 266 289 268 261
322 309 257 271 298 325 344 355 348 352 48 283 93 291 182 165 93 152 154 155 54 168 148 157 153 160 136 208 136 249 193 248 300 23 292 10 279 300 321 312 284 291 243 286 279
325 312 240 226 253 307 322 332 344 20 12 288 26 136 162 110 133 110 158 161 183 166 121 198 155 154 163 215 164 175 128 354 66 106 7 6 81 270 298 323 298 333 314 322 308
322 326 252 241 242 266 292 323 336 51 253 339 150 226 142 107 102 121 147 123 113 111 44 122 148 156 166 114 170 154 115 69 67 87 16 203 157 267 251 200 295 310 318 322 313
298 305 252 241 257 262 287 312 34 139 299 318 219 211 103 162 151 177 150 175 168 96 209 28 164 202 173 106 23 107 60 343 354 6 244 172 281 254 272 251 241 281 304 321 308
277 290 275 267 227 238 290 39 59 263 259 301 258 94 234 160 98 165 136 253 224 113 104 137 326 166 178 223 159 69 142 149 215 256 283 30 234 249 218 288 281 288 314 319 321
305 309 295 263 217 204 217 91 209 231 279 332 337 42 308 75 140 203 215 227 201 185 152 137 313 119 185 120 113 151 72 167 99 194 295 236 284 281 308 6 336 318 330 324 324
330 332 289 255 203 208 153 234 233 213 316 324 61 59 329 355 2 251 206 242 280 198 284 193 108 347 146 119 43 152 147 77 25 304 276 280 270 235 304 306 311 314 317 317 324
338 308 283 171 161 200 216 232 258 265 255 309 132 35 326 27 292 249 266 356 341 131 195 142 98 235 163 196 175 129 172 61 112 153 208 301 241 215 256 277 302 313 321 322 326
0 341 324 174 122 175 208 249 329 340 310 323 228 166 229 334 312 284 207 8 334 172 149 28 129 184 202 55 308 178 181 150 147 220 228 233 268 221 304 313 316 317 319 323 326
300 302 339 201 195 207 243 269 280 318 17 10 311 59 68 169 243 251 326 81 20 34 80 184 118 58 353 4 44 207 193 140 97 101 189 222 263 291 320 314 315 315 320 322 327
170 302 329 247 99 168 232 252 242 292 46 235 283 320 76 325 235 286 336 37 26 31 12 21 148 175 191 175 144 208 205 205 184 207 269 240 278 295 299 311 313 315 321 327 331
43 328 46 325 65 27 336 321 276 238 249 182 277 191 163 222 292 197 5 341 58 10 40 113 218 186 244 276 270 236 252 240 242 252 244 270 281 286 295 303 302 310 324 329 326
124 185 26 264 312 287 161 275 283 298 294 155 215 185 171 216 253 343 13 29 324 2 50 2 256 213 267 243 244 256 255 246 251 257 260 263 274 276 284 307 309 316 331 327 327
130 159 222 282 259 78 205 49 5 345 47 67 4 279 216 278 327 288 246 287 268 289 320 229 193 163 246 242 325 279 244 237 242 181 196 218 237 327 313 313 314 317 329 331 324